[[{"header":{"parameterUnit":"m.s-1","parameterCategory":2,"la1":30.2991,"la2":30.254,"lo1":-89.0895,"lo2":-89.0444,"dy":0.0017,"dx":0.0017,"nx":28,"ny":28,"refTime":"2023-04-26T15:00:00:Z","depth":"0","parameterNumber":2,"parameterNumberName":"U-component_of_CURRENTS"},"data":[0,0,0,0,0,0,0,0,0,0,0,0,0,0,0,0,0,0,0,0,0,0,0,0,0,0,0,0,0,0,0,0,0,0,0,0,0,0,0,0,0,0,0,0,0,0,0,0,0,0,0,0,0,0,0,0,0,0,0.1882,0.1882,0,0.1835,0.1835,0.1834,0.1753,0.1752,0.1751,0.175,0.1715,0.1715,0.1716,0,0,0,0,0,0,0,0,0,0,0,0,0,0.1917,0.1916,0.1882,0.1882,0.1881,0.1836,0.1835,0.1834,0.1754,0.1752,0.1751,0.1749,0.1715,0.1715,0.1716,0,0,0,0,0,0,0,0,0,0,0,0,0,0.1886,0.1916,0.1882,0.1839,0.1834,0.1836,0.1834,0.1833,0.1754,0.1752,0.175,0.1749,0.1715,0.1715,0.1716,0.1753,0,0,0.1716,0.1717,0,0,0,0,0,0,0,0,0.1888,0.1884,0.1845,0.1842,0.1837,0.1802,0.1834,0.1808,0.1754,0.1781,0.175,0.1748,0.1749,0.1746,0.1736,0.1751,0.175,0.1717,0.1717,0.1717,0.1717,0,0,0,0,0,0,0,0.189,0.1886,0.186,0.1845,0.184,0.1827,0.182,0.1829,0.1773,0.1778,0.1773,0.1774,0.1746,0.1736,0.1735,0.1749,0.1716,0.1717,0.1717,0.1717,0.1845,0.1848,0,0,0,0,0,0,0.1904,0.1888,0.1861,0.1859,0.1863,0.1828,0.182,0.1812,0.1772,0.1765,0.1776,0.1771,0.1737,0.1735,0.1733,0.1782,0.1717,0.1717,0.1717,0.1842,0.1846,0.185,0,0,0,0,0,0,0.1905,0.1902,0.1863,0.1876,0.187,0.183,0.1821,0.1812,0.18,0.1771,0.1763,0.1773,0.1735,0.1733,0.1759,0.1779,0.1717,0.1717,0.1838,0.1843,0.1848,0.1875,0,0,0,0,0,0,0.1906,0.1902,0.19,0.1876,0.187,0.1862,0.1823,0.1812,0.1805,0.1798,0.1767,0.1761,0.1734,0.1759,0.1759,0.1779,0.1718,0.1834,0.1841,0.1846,0.187,0.188,0.1889,0,0,0,0,0,0.1907,0.1898,0.19,0.1897,0.1868,0.1863,0.1858,0.1821,0.1807,0.1803,0.1801,0.1762,0.1798,0.1762,0.1761,0.1781,0.1831,0.1839,0.1846,0.1865,0.1878,0.1888,0,0,0,0,0,0,0.1895,0.1889,0.189,0.1875,0.1876,0.185,0.1839,0.1833,0.1827,0.1819,0.1796,0.1792,0.1826,0.1819,0.1779,0.1846,0.1812,0.182,0.1828,0.1839,0.1849,0.1821,0.1718,0,0,0,0,0,0.1902,0.1898,0.1897,0.1887,0.1887,0.1874,0.1868,0.1852,0.1846,0.1839,0.1829,0.1836,0.186,0.1859,0.1873,0.1904,0.19,0.1925,0.1935,0.1942,0.1926,0.1969,0.1979,0.1874,0.1874,0.1873,0,0,0.1891,0.1892,0.1886,0.1887,0.1878,0.1875,0.1863,0.1856,0.1856,0.1842,0.1842,0.1868,0.1881,0.1913,0.1928,0.1902,0.1976,0.1952,0.1957,0.1936,0.1978,0.1987,0.1996,0.1879,0.1878,0.1877,0,0,0.187,0.1875,0.1866,0.1874,0.1879,0.1876,0.1882,0.1876,0.1873,0.1896,0.19,0.194,0.1957,0.1972,0.1983,0.2063,0.2032,0.2081,0.2087,0.213,0.2137,0.2144,0.2158,0.2165,0.2075,0.2076,0.2076,0,0.1852,0.1846,0.1863,0.1864,0.1863,0.188,0.1871,0.1882,0.189,0.1901,0.1898,0.1968,0.198,0.2029,0.2058,0.2076,0.2089,0.2031,0.2137,0.2143,0.2149,0.2162,0.217,0.2078,0.2077,0.2077,0.2077,0,0.183,0.1829,0.1824,0.1832,0.1842,0.1836,0.1862,0.188,0.1893,0.1907,0.1966,0.2005,0.2035,0.2072,0.2082,0.2148,0.214,0.2146,0.2091,0.216,0.2171,0.2178,0.2081,0.208,0.2079,0.2079,0,0,0.175,0.1796,0.1791,0.1795,0.1823,0.1821,0.1848,0.187,0.188,0.1928,0.1947,0.203,0.2058,0.2077,0.2117,0.2163,0.2229,0.2172,0.2174,0.2156,0.2308,0.2267,0.227,0.2254,0.2256,0.2257,0.2298,0,0.1713,0.1714,0.175,0.1742,0.1735,0.178,0.1801,0.1836,0.187,0.1902,0.1975,0.2013,0.2059,0.2081,0.2141,0.2207,0.225,0.2216,0.2269,0.227,0.22,0.2278,0.2207,0.2235,0.2305,0.2306,0.2307,0,0.165,0.1669,0.1658,0.1695,0.1696,0.1701,0.1731,0.1758,0.1827,0.1858,0.1923,0.1974,0.2059,0.2087,0.2215,0.2192,0.225,0.2301,0.2304,0.2252,0.2243,0.2182,0.2246,0.214,0.2318,0.2317,0.2316,0,0.1557,0.1587,0.1578,0.1588,0.1642,0.1646,0.1672,0.1732,0.1753,0.1827,0.1843,0.1954,0.1992,0.2101,0.2206,0.2216,0.2331,0.2352,0.2368,0.2364,0.2305,0.2293,0.2241,0.2438,0.2438,0.2438,0.2438,0,0.1481,0.1464,0.1533,0.1525,0.1514,0.1578,0.1575,0.1621,0.1684,0.1707,0.1809,0.1843,0.2001,0.2084,0.2192,0.2291,0.2318,0.2372,0.238,0.2315,0.2305,0.2209,0.2132,0.244,0.2439,0.2439,0.2439,0,0.1361,0.1406,0.139,0.145,0.1462,0.1448,0.1499,0.1512,0.1579,0.161,0.1631,0.1756,0.1872,0.2011,0.2173,0.2248,0.2274,0.2385,0.2283,0.2278,0.2194,0.2122,0.1988,0.1944,0.2416,0.2415,0.2415,0,0.1299,0.1286,0.1317,0.1316,0.1335,0.1343,0.1356,0.1435,0.1459,0.1557,0.1568,0.1679,0.176,0.1963,0.2117,0.2274,0.2215,0.2294,0.2309,0.2175,0.2102,0.1993,0.1959,0.2248,0.2246,0.2244,0.2243,0,0.1205,0.1211,0.1222,0.1213,0.1214,0.1223,0.1254,0.1255,0.1358,0.1391,0.1465,0.1534,0.172,0.1846,0.2035,0.2151,0.2128,0.2266,0.2167,0.1992,0.183,0.1795,0.2212,0.2229,0.2231,0.2232,0.2233,0.2233,0.114,0.1116,0.1139,0.1114,0.112,0.112,0.1106,0.1164,0.1192,0.1244,0.1337,0.1406,0.1571,0.183,0.1959,0.2045,0.2013,0.203,0.1962,0.1872,0.1788,0.2154,0.2155,0.2156,0.2157,0.2158,0.2158,0,0.1071,0.1064,0.1051,0.1032,0.1004,0.1038,0.1055,0.1044,0.1058,0.1125,0.1175,0.1274,0.1408,0.1603,0.1758,0.1738,0.1731,0.1685,0.152,0.1518,0.189,0.1842,0.1726,0.1726,0.1726,0.1726,0.1726,0.1727,0.1045,0.1008,0.0992,0.0931,0.0917,0.0879,0.0874,0.0876,0.0911,0.0935,0.0979,0.1044,0.1175,0.1269,0.1362,0.1395,0.1276,0.1183,0.1176,0.1428,0.1455,0.1481,0.142,0.1217,0.1216,0.0793,0.0789,0.0786]},{"header":{"parameterUnit":"m.s-1","parameterCategory":2,"la1":30.2991,"la2":30.254,"lo1":-89.0895,"lo2":-89.0444,"dy":0.0017,"dx":0.0017,"nx":28,"ny":28,"refTime":"2023-04-26T15:00:00:Z","depth":"0","parameterNumber":3,"parameterNumberName":"V-component_of_CURRENTS"},"data":[0,0,0,0,0,0,0,0,0,0,0,0,0,0,0,0,0,0,0,0,0,0,0,0,0,0,0,0,0,0,0,0,0,0,0,0,0,0,0,0,0,0,0,0,0,0,0,0,0,0,0,0,0,0,0,0,0,0,-0.0214,-0.0214,0,-0.0183,-0.0182,-0.0181,-0.0177,-0.0178,-0.0179,-0.0179,-0.0199,-0.0199,-0.0199,0,0,0,0,0,0,0,0,0,0,0,0,0,-0.0181,-0.0182,-0.0214,-0.0214,-0.0214,-0.0183,-0.0182,-0.0181,-0.0177,-0.0178,-0.0179,-0.018,-0.0199,-0.0199,-0.0199,0,0,0,0,0,0,0,0,0,0,0,0,0,-0.0173,-0.0182,-0.0214,-0.0211,-0.0211,-0.0183,-0.0182,-0.0181,-0.0177,-0.0178,-0.0179,-0.018,-0.0199,-0.0199,-0.0199,-0.0178,0,0,-0.0199,-0.0199,0,0,0,0,0,0,0,0,-0.0174,-0.0174,-0.0212,-0.0212,-0.0211,-0.0189,-0.0178,-0.0184,-0.0177,-0.0186,-0.0179,-0.0181,-0.0202,-0.0202,-0.0187,-0.0179,-0.018,-0.0199,-0.0199,-0.0198,-0.0198,0,0,0,0,0,0,0,-0.0174,-0.0175,-0.0198,-0.0212,-0.0212,-0.0181,-0.0181,-0.0178,-0.0187,-0.0185,-0.0186,-0.0188,-0.0202,-0.0187,-0.0188,-0.018,-0.0199,-0.0198,-0.0198,-0.0198,-0.0123,-0.0121,0,0,0,0,0,0,-0.019,-0.0176,-0.0199,-0.0197,-0.0199,-0.0181,-0.0182,-0.0192,-0.0186,-0.0186,-0.0187,-0.0188,-0.0187,-0.0188,-0.0189,-0.0142,-0.0198,-0.0198,-0.0198,-0.0125,-0.0122,-0.012,0,0,0,0,0,0,-0.019,-0.0193,-0.02,-0.0188,-0.0188,-0.0182,-0.0192,-0.0191,-0.018,-0.0188,-0.0189,-0.018,-0.0188,-0.0189,-0.016,-0.0144,-0.0198,-0.0198,-0.0127,-0.0124,-0.0121,-0.0062,0,0,0,0,0,0,-0.0189,-0.0193,-0.0197,-0.019,-0.0189,-0.0174,-0.0192,-0.0189,-0.0181,-0.0182,-0.0181,-0.0184,-0.0189,-0.0159,-0.016,-0.0144,-0.0198,-0.0129,-0.0126,-0.0122,-0.0066,-0.0057,-0.005,0,0,0,0,0,-0.0188,-0.0189,-0.0197,-0.0199,-0.0198,-0.0173,-0.0168,-0.0165,-0.018,-0.0161,-0.0151,-0.0184,-0.0138,-0.0157,-0.0158,-0.0143,-0.0131,-0.0127,-0.0123,-0.007,-0.0059,-0.005,0,0,0,0,0,0,-0.017,-0.0189,-0.0198,-0.0204,-0.0187,-0.0174,-0.0162,-0.0163,-0.0139,-0.0144,-0.0154,-0.0154,-0.0123,-0.0134,-0.0156,-0.0107,-0.0142,-0.0138,-0.0102,-0.0092,-0.0084,-0.0105,-0.0198,0,0,0,0,0,-0.0172,-0.0182,-0.0181,-0.0183,-0.0178,-0.017,-0.0161,-0.0156,-0.0141,-0.0133,-0.0128,-0.0121,-0.0103,-0.0099,-0.0085,-0.0059,-0.0085,-0.0049,-0.0041,-0.0034,-0.0049,-0.0051,-0.0045,-0.0106,-0.0106,-0.0106,0,0,-0.0166,-0.0177,-0.0182,-0.018,-0.0171,-0.0152,-0.0165,-0.0147,-0.0127,-0.0139,-0.0103,-0.0091,-0.0087,-0.0049,-0.0038,-0.0059,-0.0027,-0.0028,-0.0022,-0.0042,-0.0046,-0.0041,-0.0036,-0.0103,-0.0104,-0.0104,0,0,-0.0154,-0.0168,-0.017,-0.0156,-0.0147,-0.0135,-0.0132,-0.0111,-0.0097,-0.0057,-0.0059,-0.0032,-0.0008,0.0005,0.0011,0.0072,0.0021,0.0074,0.0092,0.0091,0.0095,0.0098,0.008,0.008,0.0074,0.0074,0.0074,0,-0.0142,-0.0155,-0.0159,-0.0149,-0.014,-0.013,-0.0114,-0.0088,-0.0055,-0.0044,-0.004,0.001,0.0017,0.0051,0.0079,0.0087,0.0069,0.0052,0.0099,0.0102,0.0104,0.0084,0.0084,0.0077,0.0077,0.0076,0.0076,0,-0.0132,-0.0135,-0.0129,-0.0122,-0.0103,-0.0086,-0.0061,-0.0033,-0.0018,0.0001,0.0044,0.0075,0.0092,0.0113,0.0114,0.0139,0.0116,0.0112,0.0067,0.0113,0.009,0.0089,0.0082,0.0081,0.008,0.0079,0,0,-0.0115,-0.0125,-0.0121,-0.012,-0.0092,-0.0076,-0.0037,-0.0005,0.0009,0.0059,0.0078,0.0136,0.0137,0.0144,0.0154,0.0164,0.0178,0.0143,0.0142,0.0111,0.0159,0.0131,0.0127,0.0179,0.0179,0.0179,0.0138,0,-0.0102,-0.0103,-0.0101,-0.0076,-0.0069,-0.0049,-0.0016,0.0017,0.0048,0.0078,0.011,0.0139,0.0153,0.0161,0.0177,0.0179,0.0177,0.0188,0.0129,0.0126,0.0086,0.0126,0.0141,0.0105,0.0137,0.0136,0.0136,0,-0.0086,-0.0093,-0.0087,-0.0075,-0.0069,-0.0047,-0.0012,0.0019,0.0062,0.0082,0.0113,0.0132,0.0164,0.0166,0.0178,0.0181,0.0166,0.0167,0.0165,0.0111,0.0097,0.0064,0.0101,0.0133,0.0134,0.0134,0.0135,0,-0.0079,-0.0074,-0.0079,-0.0072,-0.0054,-0.0043,-0.0025,0.0016,0.0038,0.0076,0.0091,0.0128,0.0142,0.0145,0.0157,0.0159,0.0157,0.0158,0.0115,0.0112,0.0096,0.0092,0.0143,0.0146,0.0146,0.0146,0.0146,0,-0.0066,-0.0057,-0.0083,-0.0079,-0.0071,-0.0054,-0.0031,-0.0007,0.0024,0.0049,0.0084,0.0109,0.0137,0.0148,0.0148,0.013,0.0145,0.0113,0.0103,0.012,0.0118,0.012,0.0116,0.0145,0.0145,0.0145,0.0146,0,-0.0041,-0.006,-0.0062,-0.007,-0.0069,-0.0062,-0.0041,-0.0023,0.0002,0.0032,0.0041,0.0088,0.0105,0.0125,0.0128,0.0112,0.0106,0.0085,0.0096,0.0087,0.0069,0.0067,0.0051,0.0058,0.0024,0.0023,0.0022,0,-0.0024,-0.0034,-0.0064,-0.0071,-0.0073,-0.0066,-0.0056,-0.0033,-0.0016,0.0025,0.0038,0.0064,0.0097,0.0092,0.0084,0.0065,0.008,0.0033,0.0043,0.0067,0.0058,0.0065,0.0073,0.005,0.0049,0.0049,0.0049,0,0.0006,-0.002,-0.0034,-0.0067,-0.007,-0.0064,-0.0054,-0.0044,-0.0014,0.0006,0.0037,0.0063,0.0075,0.0084,0.0054,0.004,0.0052,0.0022,0.0057,0.0085,0.0085,0.0087,0.0066,0.0045,0.0046,0.0046,0.0046,0.0046,0.0028,0.0008,-0.0038,-0.0061,-0.0065,-0.0062,-0.006,-0.0045,-0.0025,0.0003,0.0034,0.0068,0.0088,0.0068,0.0047,0.003,0.002,0.0026,0.002,0.0024,0.0039,-0.0005,-0.0041,-0.0042,-0.0042,-0.0042,-0.0042,0,0.0039,-0.0001,-0.0027,-0.0061,-0.0071,-0.0073,-0.006,-0.0061,-0.0047,-0.001,0.0017,0.007,0.0094,0.0095,0.0079,0.0053,0.0056,0.0044,0.0085,0.0092,0.0069,0.0082,0.0059,0.0059,0.0059,0.0059,0.0059,0.0059,0.0044,-0.0005,-0.0039,-0.0071,-0.0086,-0.0103,-0.0102,-0.0095,-0.0077,-0.0042,-0.0009,0.0032,0.0101,0.0135,0.0142,0.0119,0.0132,0.0099,0.0102,0.0122,0.0122,0.0121,0.0137,0.0126,0.0126,0.0157,0.0157,0.0157]}],[{"header":{"parameterUnit":"m.s-1","parameterCategory":2,"la1":30.2991,"la2":30.254,"lo1":-89.0895,"lo2":-89.0444,"dy":0.0017,"dx":0.0017,"nx":28,"ny":28,"refTime":"2023-04-26T15:00:00:Z","depth":"2","parameterNumber":2,"parameterNumberName":"U-component_of_CURRENTS"},"data":[0,0,0,0,0,0,0,0,0,0,0,0,0,0,0,0,0,0,0,0,0,0,0,0,0,0,0,0,0,0,0,0,0,0,0,0,0,0,0,0,0,0,0,0,0,0,0,0,0,0,0,0,0,0,0,0,0,0,0.1921,0.192,0,0.1883,0.1882,0.1882,0.1823,0.1822,0.1822,0.1821,0.1799,0.1799,0.18,0,0,0,0,0,0,0,0,0,0,0,0,0,0.2008,0.2006,0.1921,0.192,0.192,0.1883,0.1882,0.1882,0.1824,0.1822,0.1821,0.182,0.1799,0.1799,0.18,0,0,0,0,0,0,0,0,0,0,0,0,0,0.1969,0.2006,0.1921,0.1887,0.1883,0.1883,0.1882,0.1881,0.1824,0.1822,0.1821,0.182,0.1799,0.1799,0.18,0.1833,0,0,0.1801,0.1802,0,0,0,0,0,0,0,0,0.1972,0.1966,0.1892,0.1889,0.1885,0.1857,0.1905,0.1866,0.1824,0.1846,0.1821,0.1819,0.1821,0.182,0.1815,0.1832,0.1831,0.1802,0.1802,0.1802,0.1802,0,0,0,0,0,0,0,0.1974,0.1968,0.1905,0.1892,0.1888,0.1896,0.1888,0.1897,0.1843,0.1844,0.184,0.1837,0.1819,0.1815,0.1814,0.1831,0.1801,0.1802,0.1802,0.1803,0.1929,0.1932,0,0,0,0,0,0,0.1978,0.197,0.1906,0.1904,0.1926,0.1895,0.1886,0.1867,0.1842,0.1837,0.1838,0.1834,0.1815,0.1814,0.1813,0.1869,0.1802,0.1803,0.1803,0.1926,0.193,0.1933,0,0,0,0,0,0,0.198,0.1972,0.1908,0.1938,0.193,0.1895,0.1874,0.1867,0.1867,0.1837,0.1832,0.1845,0.1813,0.1813,0.1845,0.1866,0.1803,0.1803,0.1923,0.1927,0.1932,0.1968,0,0,0,0,0,0,0.1982,0.1972,0.1979,0.1937,0.1928,0.1902,0.1875,0.1867,0.1867,0.1862,0.1842,0.1838,0.1812,0.1844,0.1845,0.1866,0.1804,0.1919,0.1925,0.193,0.1963,0.1973,0.1982,0,0,0,0,0,0.1985,0.1979,0.198,0.1973,0.1932,0.1902,0.1899,0.1869,0.1869,0.1866,0.1876,0.1838,0.1881,0.1847,0.1848,0.1869,0.1916,0.1923,0.193,0.1959,0.1971,0.1982,0,0,0,0,0,0,0.2016,0.1972,0.1971,0.1952,0.1934,0.1892,0.1897,0.1885,0.189,0.1902,0.1873,0.1871,0.1907,0.1902,0.1865,0.193,0.1895,0.1902,0.1917,0.1929,0.1938,0.1916,0.1804,0,0,0,0,0,0.2031,0.202,0.1981,0.1976,0.1968,0.1945,0.194,0.1923,0.1914,0.1914,0.1904,0.1918,0.1938,0.1943,0.1954,0.199,0.1981,0.2011,0.2021,0.2029,0.2017,0.2045,0.2054,0.1956,0.1956,0.1956,0,0,0.2046,0.2023,0.2019,0.1985,0.1975,0.1965,0.1937,0.1933,0.1935,0.1916,0.1935,0.195,0.1959,0.1993,0.201,0.1987,0.2057,0.2037,0.2043,0.2026,0.2053,0.2062,0.207,0.1961,0.196,0.1959,0,0,0.206,0.2049,0.2043,0.203,0.2018,0.2,0.2003,0.1978,0.1976,0.2001,0.1999,0.2029,0.2051,0.2055,0.2063,0.2141,0.2109,0.2161,0.2179,0.2208,0.2215,0.2221,0.2226,0.2232,0.2161,0.2161,0.2161,0,0.2085,0.2055,0.2041,0.2034,0.2024,0.2017,0.2008,0.2014,0.2008,0.2018,0.2013,0.207,0.2074,0.2114,0.2141,0.2155,0.2165,0.2124,0.2216,0.2221,0.2227,0.223,0.2236,0.2164,0.2163,0.2163,0.2163,0,0.208,0.2071,0.2068,0.2053,0.2052,0.204,0.2039,0.2053,0.2062,0.2065,0.2111,0.2128,0.2152,0.2175,0.2177,0.223,0.2223,0.2222,0.2172,0.2238,0.2239,0.2244,0.2167,0.2166,0.2166,0.2165,0,0,0.203,0.2063,0.2045,0.2044,0.2052,0.2029,0.207,0.2071,0.208,0.2116,0.213,0.2187,0.2202,0.2215,0.2232,0.2258,0.2308,0.2261,0.2261,0.2239,0.2364,0.2307,0.2307,0.2328,0.233,0.2331,0.235,0,0.2008,0.2002,0.2026,0.2012,0.1992,0.2025,0.2045,0.2069,0.2093,0.2114,0.2165,0.2183,0.2218,0.2223,0.2271,0.2306,0.2325,0.2302,0.2326,0.2326,0.2245,0.2312,0.2038,0.2028,0.2355,0.2356,0.2356,0,0.1923,0.1938,0.1931,0.1959,0.1955,0.1955,0.1965,0.199,0.2053,0.208,0.2142,0.218,0.2251,0.2248,0.2347,0.2337,0.235,0.2366,0.2368,0.2298,0.2279,0.2018,0.2025,0.2365,0.2364,0.2363,0.2363,0,0.1796,0.1829,0.1822,0.1828,0.1884,0.1885,0.1905,0.1959,0.1975,0.2042,0.206,0.2172,0.2195,0.2274,0.2346,0.2349,0.2428,0.2431,0.2382,0.2378,0.2137,0.211,0.2461,0.2461,0.2461,0.2461,0.2461,0,0.1698,0.167,0.1755,0.1738,0.1722,0.1786,0.1774,0.1819,0.1882,0.1905,0.2018,0.2055,0.2202,0.2279,0.2348,0.2395,0.2436,0.2387,0.2384,0.2146,0.2121,0.2404,0.2397,0.2462,0.2462,0.2462,0.2462,0,0.1538,0.1597,0.1576,0.1642,0.1652,0.1624,0.1678,0.1686,0.1752,0.1784,0.1803,0.1965,0.2081,0.2206,0.2321,0.236,0.2421,0.2406,0.2112,0.2076,0.2348,0.2343,0.2369,0.2367,0.2366,0.2364,0.2363,0,0.1466,0.1445,0.1481,0.148,0.1503,0.1497,0.1508,0.1588,0.1615,0.173,0.1746,0.1866,0.1966,0.2129,0.2191,0.2279,0.2364,0.2063,0.2019,0.2346,0.2342,0.2339,0.2337,0.1714,0.1707,0.1702,0.1698,0,0.1355,0.1359,0.1374,0.1361,0.1358,0.1368,0.1393,0.1398,0.1508,0.1551,0.1655,0.1738,0.1862,0.1845,0.1936,0.1976,0.2046,0.1963,0.2369,0.1795,0.1734,0.1728,0.1746,0.1652,0.1657,0.166,0.1663,0.1665,0.1281,0.1255,0.128,0.1256,0.1258,0.1261,0.1248,0.1317,0.1356,0.1444,0.1555,0.1565,0.1566,0.1584,0.1615,0.1641,0.1802,0.1709,0.1722,0.1741,0.1677,0.1619,0.1502,0.1505,0.1509,0.1511,0.1514,0,0.1213,0.1203,0.1189,0.1173,0.1148,0.1172,0.1198,0.1217,0.1259,0.133,0.1419,0.119,0.1159,0.1187,0.1116,0.1194,0.1197,0.1182,0.1096,0.1138,0.1177,0.1084,0.0752,0.0751,0.075,0.0749,0,0,0.119,0.1159,0.1148,0.1089,0.1066,0.1026,0.1028,0.1092,0.1136,0.1118,0.1027,0.1147,0.1076,0.084,0.0866,0.0783,0.0994,0.079,0.1379,0.1316,0.1354,0.1437,0.1337,0,0,0,0,0]},{"header":{"parameterUnit":"m.s-1","parameterCategory":2,"la1":30.2991,"la2":30.254,"lo1":-89.0895,"lo2":-89.0444,"dy":0.0017,"dx":0.0017,"nx":28,"ny":28,"refTime":"2023-04-26T15:00:00:Z","depth":"2","parameterNumber":3,"parameterNumberName":"V-component_of_CURRENTS"},"data":[0,0,0,0,0,0,0,0,0,0,0,0,0,0,0,0,0,0,0,0,0,0,0,0,0,0,0,0,0,0,0,0,0,0,0,0,0,0,0,0,0,0,0,0,0,0,0,0,0,0,0,0,0,0,0,0,0,0,-0.0796,-0.0794,0,-0.0566,-0.0562,-0.0559,-0.0371,-0.037,-0.0368,-0.0367,-0.0336,-0.0337,-0.0337,0,0,0,0,0,0,0,0,0,0,0,0,0,-0.0797,-0.0799,-0.0796,-0.0794,-0.0792,-0.0566,-0.0562,-0.0558,-0.0371,-0.037,-0.0368,-0.0367,-0.0336,-0.0337,-0.0337,0,0,0,0,0,0,0,0,0,0,0,0,0,-0.0699,-0.08,-0.0797,-0.0677,-0.0664,-0.0567,-0.0562,-0.0557,-0.0371,-0.037,-0.0368,-0.0366,-0.0336,-0.0337,-0.0337,-0.0378,0,0,-0.0339,-0.0339,0,0,0,0,0,0,0,0,-0.0705,-0.0698,-0.0697,-0.0685,-0.0671,-0.0502,-0.0551,-0.051,-0.0372,-0.0475,-0.0367,-0.0365,-0.0417,-0.0411,-0.0357,-0.0376,-0.0375,-0.0339,-0.0339,-0.0339,-0.0339,0,0,0,0,0,0,0,-0.0712,-0.0705,-0.0697,-0.0695,-0.0679,-0.054,-0.0526,-0.054,-0.0457,-0.0465,-0.0453,-0.044,-0.041,-0.0357,-0.0356,-0.0375,-0.0339,-0.0339,-0.0339,-0.034,-0.0364,-0.0364,0,0,0,0,0,0,-0.0774,-0.0714,-0.0704,-0.0691,-0.0692,-0.0544,-0.0527,-0.0552,-0.0452,-0.0435,-0.0442,-0.0433,-0.0357,-0.0356,-0.0355,-0.0353,-0.0339,-0.034,-0.034,-0.0363,-0.0364,-0.0364,0,0,0,0,0,0,-0.0775,-0.0777,-0.0714,-0.07,-0.0683,-0.0549,-0.0576,-0.0548,-0.0473,-0.0433,-0.0419,-0.0394,-0.0356,-0.0354,-0.0331,-0.0353,-0.034,-0.034,-0.0363,-0.0364,-0.0364,-0.038,0,0,0,0,0,0,-0.0777,-0.0779,-0.0802,-0.0706,-0.0687,-0.0674,-0.0578,-0.0546,-0.0474,-0.0458,-0.0389,-0.0384,-0.0354,-0.033,-0.0332,-0.0353,-0.0341,-0.0363,-0.0363,-0.0364,-0.038,-0.0381,-0.0383,0,0,0,0,0,-0.0778,-0.0804,-0.0806,-0.0803,-0.073,-0.0676,-0.0652,-0.0541,-0.0474,-0.046,-0.0383,-0.0385,-0.0336,-0.033,-0.0332,-0.0355,-0.0362,-0.0363,-0.0364,-0.0379,-0.0381,-0.0383,0,0,0,0,0,0,-0.0777,-0.0786,-0.0784,-0.0804,-0.0764,-0.0647,-0.061,-0.0543,-0.0462,-0.0438,-0.0382,-0.0373,-0.0363,-0.036,-0.0355,-0.0363,-0.0355,-0.0356,-0.0366,-0.0368,-0.037,-0.0378,-0.0341,0,0,0,0,0,-0.0811,-0.0848,-0.0821,-0.083,-0.0823,-0.0721,-0.0676,-0.0613,-0.0536,-0.0492,-0.0434,-0.039,-0.0372,-0.0367,-0.035,-0.0362,-0.0384,-0.038,-0.0382,-0.0384,-0.0392,-0.0446,-0.0454,-0.0367,-0.0367,-0.0367,0,0,-0.08,-0.0817,-0.0827,-0.0835,-0.0784,-0.0754,-0.0685,-0.063,-0.0584,-0.0516,-0.0426,-0.0397,-0.0374,-0.0362,-0.0362,-0.0361,-0.0417,-0.0385,-0.0386,-0.0393,-0.0448,-0.0456,-0.0464,-0.0367,-0.0367,-0.0367,0,0,-0.0779,-0.0833,-0.0844,-0.0834,-0.0804,-0.0763,-0.0758,-0.066,-0.0607,-0.0549,-0.048,-0.0461,-0.0413,-0.0399,-0.039,-0.0407,-0.0422,-0.0401,-0.0423,-0.0475,-0.0483,-0.0491,-0.0521,-0.0531,-0.0406,-0.0406,-0.0406,0,-0.0753,-0.0781,-0.0826,-0.0823,-0.0792,-0.0775,-0.0733,-0.0703,-0.0596,-0.0559,-0.0534,-0.0444,-0.0437,-0.0429,-0.0418,-0.0416,-0.0429,-0.0414,-0.0479,-0.0487,-0.0495,-0.0524,-0.0535,-0.0407,-0.0407,-0.0407,-0.0407,0,-0.0728,-0.0745,-0.0744,-0.0761,-0.0751,-0.0715,-0.0709,-0.0678,-0.0622,-0.0575,-0.0542,-0.0519,-0.0454,-0.0475,-0.0446,-0.0486,-0.0472,-0.0473,-0.0477,-0.0505,-0.0533,-0.0544,-0.0409,-0.0408,-0.0408,-0.0408,0,0,-0.0613,-0.0711,-0.0688,-0.0695,-0.0707,-0.0682,-0.0672,-0.0638,-0.0594,-0.0572,-0.0507,-0.0516,-0.0487,-0.0477,-0.0462,-0.053,-0.0594,-0.0517,-0.0519,-0.0551,-0.0687,-0.0591,-0.0593,-0.0598,-0.06,-0.0602,-0.0683,0,-0.0538,-0.0549,-0.0601,-0.0561,-0.056,-0.0582,-0.0563,-0.0552,-0.0532,-0.0487,-0.0528,-0.0472,-0.0498,-0.045,-0.0525,-0.0551,-0.0624,-0.0571,-0.0652,-0.0654,-0.0569,-0.0604,-0.0451,-0.0503,-0.0694,-0.0696,-0.0697,0,-0.0447,-0.0474,-0.0458,-0.0484,-0.0475,-0.0457,-0.0422,-0.0403,-0.0411,-0.0388,-0.0392,-0.0389,-0.0439,-0.0468,-0.0595,-0.0547,-0.0619,-0.0686,-0.069,-0.0604,-0.0578,-0.0507,-0.0516,-0.0716,-0.0714,-0.0713,-0.0712,0,-0.0334,-0.0344,-0.0339,-0.0345,-0.0389,-0.0362,-0.0353,-0.0355,-0.0343,-0.0318,-0.0298,-0.0348,-0.0343,-0.0471,-0.0577,-0.0574,-0.0742,-0.075,-0.0753,-0.0746,-0.0635,-0.0614,-0.0884,-0.0884,-0.0884,-0.0884,-0.0884,0,-0.0239,-0.0212,-0.0289,-0.0285,-0.025,-0.028,-0.0236,-0.0229,-0.0226,-0.0223,-0.023,-0.0245,-0.0348,-0.0439,-0.0567,-0.0673,-0.0728,-0.0764,-0.0766,-0.0632,-0.0611,-0.081,-0.08,-0.0887,-0.0886,-0.0886,-0.0885,0,-0.0144,-0.0191,-0.0195,-0.0223,-0.0224,-0.0194,-0.0201,-0.0178,-0.0157,-0.0153,-0.0139,-0.0167,-0.026,-0.0389,-0.057,-0.0621,-0.0762,-0.08,-0.0616,-0.0594,-0.0736,-0.0726,-0.0797,-0.0794,-0.0792,-0.079,-0.0789,0,-0.0118,-0.0121,-0.0163,-0.0172,-0.0189,-0.0165,-0.0161,-0.0147,-0.0141,-0.0134,-0.0139,-0.0176,-0.0241,-0.0421,-0.0457,-0.0603,-0.075,-0.0579,-0.0557,-0.0735,-0.0731,-0.0724,-0.0718,-0.0424,-0.042,-0.0416,-0.0414,0,-0.0073,-0.0095,-0.0118,-0.0148,-0.0149,-0.015,-0.0138,-0.0131,-0.0117,-0.0114,-0.0135,-0.0178,-0.0221,-0.024,-0.0338,-0.0436,-0.0525,-0.0507,-0.0762,-0.045,-0.0385,-0.038,-0.0386,-0.0381,-0.0385,-0.0387,-0.0389,-0.039,-0.0042,-0.0061,-0.011,-0.0135,-0.0138,-0.0139,-0.0139,-0.0138,-0.0134,-0.015,-0.0176,-0.0161,-0.0085,-0.0107,-0.0215,-0.0254,-0.0305,-0.0347,-0.0358,-0.0374,-0.0296,-0.0228,-0.0181,-0.0183,-0.0185,-0.0186,-0.0187,0,-0.0032,-0.0069,-0.0096,-0.0133,-0.0145,-0.0143,-0.014,-0.0167,-0.0183,-0.0164,-0.0208,-0.0022,-0.0003,-0.0006,0.005,0.0002,-0.0028,-0.0091,-0.0098,-0.0123,-0.0148,-0.0062,0.0116,0.0115,0.0114,0.0114,0,0,-0.0028,-0.008,-0.0116,-0.015,-0.0161,-0.0177,-0.0181,-0.0227,-0.0221,-0.0188,-0.0072,-0.0037,0.0096,0.0177,0.0137,0.0111,-0.0052,0.0081,-0.0133,-0.0162,-0.0189,-0.023,-0.0117,0,0,0,0,0]}],[{"header":{"parameterUnit":"m.s-1","parameterCategory":2,"la1":30.2991,"la2":30.254,"lo1":-89.0895,"lo2":-89.0444,"dy":0.0017,"dx":0.0017,"nx":28,"ny":28,"refTime":"2023-04-26T15:00:00:Z","depth":"4","parameterNumber":2,"parameterNumberName":"U-component_of_CURRENTS"},"data":[0,0,0,0,0,0,0,0,0,0,0,0,0,0,0,0,0,0,0,0,0,0,0,0,0,0,0,0,0,0,0,0,0,0,0,0,0,0,0,0,0,0,0,0,0,0,0,0,0,0,0,0,0,0,0,0,0,0,-0.0048,-0.0047,0,-0.0001,-0.0001,-0.0001,0.0062,0.0064,0.0066,0.0068,0.0087,0.0086,0.0085,0,0,0,0,0,0,0,0,0,0,0,0,0,-0.0193,-0.019,-0.0048,-0.0047,-0.0045,-0.0001,-0.0001,-0.0001,0.0062,0.0064,0.0067,0.0069,0.0087,0.0086,0.0084,0,0,0,0,0,0,0,0,0,0,0,0,0,-0.0144,-0.019,-0.0048,-0.0003,0.0003,-0.0001,-0.0001,-0.0001,0.0062,0.0064,0.0067,0.007,0.0088,0.0086,0.0084,0.0019,0,0,0.0079,0.0078,0,0,0,0,0,0,0,0,-0.0146,-0.0139,-0.0011,-0.0006,0.0,0.0035,-0.0044,0.0007,0.0061,0.0031,0.0068,0.0071,0.007,0.007,0.0062,0.002,0.0021,0.0079,0.0078,0.0077,0.0076,0,0,0,0,0,0,0,-0.015,-0.0142,-0.0038,-0.0009,-0.0003,-0.0021,-0.0011,-0.0035,0.0028,0.0033,0.004,0.0057,0.0072,0.0063,0.0063,0.0021,0.0079,0.0077,0.0076,0.0076,0.0014,0.0013,0,0,0,0,0,0,-0.0136,-0.0144,-0.0039,-0.0035,-0.0059,-0.002,-0.0009,0.0014,0.0029,0.0036,0.0055,0.006,0.0065,0.0065,0.0064,0.0139,0.0077,0.0075,0.0074,0.0014,0.0013,0.0013,0,0,0,0,0,0,-0.0139,-0.0127,-0.0041,-0.0083,-0.0072,-0.0018,0.0006,0.0014,0.0066,0.0047,0.0053,0.0107,0.0067,0.0066,0.0078,0.0135,0.0075,0.0073,0.0015,0.0014,0.0013,0.0192,0,0,0,0,0,0,-0.0144,-0.0129,-0.0104,-0.0082,-0.0069,0.0011,0.0005,0.0013,0.0072,0.0081,0.0092,0.0093,0.0069,0.008,0.0076,0.0131,0.0072,0.0016,0.0014,0.0013,0.0187,0.0197,0.0206,0,0,0,0,0,-0.0149,-0.0118,-0.0103,-0.0089,-0.0037,0.0014,0.0019,0.0058,0.0073,0.011,0.0099,0.0096,0.007,0.0079,0.0074,0.013,0.0016,0.0015,0.0014,0.0182,0.0195,0.0206,0,0,0,0,0,0,-0.0166,-0.0107,-0.009,-0.0041,0.0007,0.0029,0.0067,0.0086,0.0104,0.0119,0.0093,0.0093,0.0118,0.0078,0.0089,0.0097,0.004,0.0037,0.0169,0.0181,0.0191,0.0229,0.007,0,0,0,0,0,-0.016,-0.0116,-0.0066,-0.0022,0.0009,0.0043,0.007,0.0101,0.0119,0.0134,0.0136,0.0116,0.0093,0.0108,0.0073,0.0089,0.0058,0.0111,0.0121,0.013,0.015,0.0154,0.0169,0.0008,0.0008,0.0008,0,0,-0.0159,-0.0115,-0.0092,-0.0022,0.0015,0.0071,0.0067,0.0135,0.0179,0.0127,0.0184,0.0152,0.0096,0.0112,0.0121,0.0105,0.0152,0.0128,0.0138,0.0153,0.0155,0.0171,0.0186,0.0008,0.0008,0.0008,0,0,-0.0123,-0.0083,-0.0029,0.0016,0.0096,0.0118,0.0155,0.0206,0.0237,0.027,0.0235,0.0245,0.0218,0.0204,0.0185,0.022,0.0192,0.0204,0.0315,0.0319,0.0334,0.0347,0.0319,0.0328,0.0226,0.0227,0.0227,0,-0.0108,-0.0047,-0.0006,0.0061,0.0105,0.0152,0.0217,0.0248,0.0294,0.0311,0.0314,0.0284,0.0262,0.0273,0.0297,0.0254,0.0236,0.0293,0.0341,0.0353,0.0363,0.033,0.0338,0.0235,0.0234,0.0233,0.0233,0,-0.0044,0.0018,0.006,0.0156,0.0206,0.0274,0.0327,0.0377,0.0412,0.043,0.0463,0.0428,0.0416,0.0412,0.0379,0.0434,0.0389,0.035,0.0334,0.0392,0.0351,0.0356,0.0247,0.0244,0.0242,0.024,0,0,-0.0009,0.0085,0.0113,0.0154,0.0263,0.0307,0.0389,0.046,0.0495,0.0551,0.0584,0.0593,0.059,0.0564,0.0531,0.056,0.0626,0.0515,0.0511,0.0527,0.0625,0.0531,0.0526,0.0614,0.0616,0.0618,0.0566,0,0.0049,0.0155,0.0197,0.0303,0.0358,0.0415,0.0469,0.0534,0.0572,0.0608,0.0624,0.0634,0.0642,0.0641,0.0683,0.0614,0.0649,0.0642,0.053,0.0526,0.0471,0.0533,0.0624,0.0569,0.057,0.0571,0.0571,0,0.0117,0.0173,0.0279,0.0349,0.0381,0.0456,0.0541,0.059,0.0648,0.0668,0.0722,0.0713,0.0766,0.0747,0.0757,0.0757,0.0726,0.0688,0.0684,0.0543,0.0443,0.0493,0.058,0.0579,0.0579,0.0578,0.0578,0,0.0113,0.0233,0.0311,0.0347,0.044,0.0504,0.0558,0.0628,0.0644,0.072,0.0721,0.0787,0.0779,0.0804,0.072,0.077,0.0672,0.0713,0.06,0.059,0.0614,0.06,0.0735,0.0736,0.0736,0.0736,0.0736,0,0.0144,0.021,0.0324,0.0366,0.0446,0.0516,0.0588,0.0639,0.0681,0.0677,0.076,0.0715,0.08,0.0734,0.072,0.0636,0.0669,0.0636,0.0586,0.0681,0.0676,0.0617,0.0604,0.0734,0.0734,0.0735,0.0735,0,0.0121,0.0203,0.0285,0.0404,0.045,0.0511,0.0597,0.0605,0.0672,0.0664,0.0689,0.0676,0.0627,0.0622,0.0583,0.059,0.053,0.0472,0.052,0.0468,0.0472,0.0468,0.0466,0.0463,0.046,0.0458,0.0456,0,0.0112,0.016,0.03,0.0347,0.0418,0.0509,0.0536,0.0607,0.0588,0.0585,0.0533,0.0514,0.0504,0.0351,0.0376,0.0366,0.0357,0.0353,0.053,0.0501,0.0453,0.0453,0.0453,0.0451,0.045,0.045,0.0449,0,0.0071,0.0142,0.0193,0.0292,0.0364,0.0391,0.0437,0.0417,0.045,0.0519,0.04,0.0394,0.0301,0.0288,0.0237,0.0223,0.0402,0.0326,0.0337,0.0504,0.0482,0.0437,0.0441,0.0439,0.044,0.0441,0.0442,0,0.0037,0.0055,0.0134,0.0217,0.0281,0.0259,0.0293,0.0265,0.0264,0.0303,0.0224,0.0203,0.0227,0.0196,0.0115,0.0134,0.0236,0.0309,0.0324,0.0335,0.0324,0.0279,0.0149,0,0,0,0,0,0.0006,0.001,0.0048,0.012,0.0168,0.0199,0.0203,0.0216,0.0263,0.0178,0.0227,0.0145,0.0132,0.0074,0.0089,0.0101,0.0227,0.0121,0.0316,0.0383,0.0395,0.0398,0,0,0,0,0,0,-0.0025,0.0004,0.0008,0.0017,0.005,0.0057,0.0052,0.0068,0.0018,0.0092,0.0044,0.0173,0.0106,0.0129,0.0092,0.01,0.0232,0.0147,0.0148,0.0377,0.0387,0.0397,0.0404,0,0,0,0,0]},{"header":{"parameterUnit":"m.s-1","parameterCategory":2,"la1":30.2991,"la2":30.254,"lo1":-89.0895,"lo2":-89.0444,"dy":0.0017,"dx":0.0017,"nx":28,"ny":28,"refTime":"2023-04-26T15:00:00:Z","depth":"4","parameterNumber":3,"parameterNumberName":"V-component_of_CURRENTS"},"data":[0,0,0,0,0,0,0,0,0,0,0,0,0,0,0,0,0,0,0,0,0,0,0,0,0,0,0,0,0,0,0,0,0,0,0,0,0,0,0,0,0,0,0,0,0,0,0,0,0,0,0,0,0,0,0,0,0,0,0.0592,0.0592,0,0.0467,0.0465,0.0463,0.0291,0.0289,0.0287,0.0285,0.0026,0.0021,0.0016,0,0,0,0,0,0,0,0,0,0,0,0,0,0.0512,0.0514,0.0593,0.0592,0.0591,0.0468,0.0465,0.0463,0.0292,0.0289,0.0287,0.0284,0.0028,0.0022,0.0016,0,0,0,0,0,0,0,0,0,0,0,0,0,0.0475,0.0515,0.0593,0.0498,0.0488,0.0468,0.0465,0.0462,0.0292,0.0289,0.0286,0.0283,0.003,0.0022,0.0015,0.0031,0,0,-0.0008,-0.0011,0,0,0,0,0,0,0,0,0.0477,0.0477,0.0512,0.0504,0.0494,0.04,0.0342,0.0314,0.0293,0.0357,0.0285,0.0282,0.0147,0.013,0.0102,0.0018,0.0007,-0.0009,-0.0013,-0.0016,-0.0018,0,0,0,0,0,0,0,0.048,0.048,0.0534,0.0512,0.0501,0.0403,0.0395,0.0335,0.0261,0.0351,0.0341,0.0342,0.0139,0.0109,0.0094,0.0003,-0.0008,-0.0015,-0.002,-0.0023,-0.0183,-0.0183,0,0,0,0,0,0,0.0528,0.0485,0.0538,0.0531,0.0488,0.0409,0.0399,0.0426,0.0264,0.0241,0.0345,0.0335,0.0124,0.0103,0.0084,-0.0003,-0.0016,-0.0023,-0.0028,-0.0183,-0.0183,-0.0183,0,0,0,0,0,0,0.0527,0.0535,0.0543,0.0509,0.0505,0.0416,0.0445,0.0425,0.0351,0.0263,0.0234,0.0288,0.012,0.0095,0.0006,-0.0011,-0.0027,-0.0034,-0.0184,-0.0183,-0.0183,-0.0116,0,0,0,0,0,0,0.0525,0.0536,0.0562,0.0515,0.0509,0.0507,0.0449,0.0425,0.0364,0.0348,0.0206,0.0181,0.0116,0.0018,-0.0001,-0.0022,-0.0039,-0.0184,-0.0183,-0.0183,-0.0119,-0.0114,-0.0109,0,0,0,0,0,0.0523,0.0559,0.0565,0.0571,0.0553,0.0508,0.0494,0.0412,0.0365,0.0332,0.0244,0.0183,0.0007,0.0013,-0.001,-0.0033,-0.0184,-0.0184,-0.0183,-0.0121,-0.0114,-0.0109,0,0,0,0,0,0,0.0516,0.0546,0.0549,0.0589,0.0551,0.0481,0.0453,0.0403,0.0309,0.0276,0.0184,0.0154,0.0073,0.0019,0.0028,-0.0075,-0.0098,-0.0102,-0.0043,-0.0038,-0.0033,-0.0012,-0.0046,0,0,0,0,0,0.0546,0.059,0.0576,0.0602,0.0587,0.0519,0.0489,0.0429,0.0354,0.0305,0.0212,0.0124,0.0069,0.0013,-0.0052,-0.011,-0.0119,-0.0138,-0.0133,-0.0129,-0.0125,-0.0132,-0.0127,-0.0181,-0.0181,-0.0181,0,0,0.056,0.0575,0.0603,0.0606,0.0566,0.0536,0.0487,0.0427,0.0387,0.0296,0.0193,0.0133,0.006,-0.0005,-0.0047,-0.0064,-0.0114,-0.0128,-0.0124,-0.0123,-0.0131,-0.0125,-0.0121,-0.0181,-0.0181,-0.0181,0,0,0.0571,0.0611,0.0632,0.0604,0.0559,0.0526,0.0508,0.0422,0.0365,0.0286,0.0223,0.0162,0.0039,0.0002,-0.003,-0.0034,-0.0081,-0.0071,-0.0046,-0.0052,-0.0047,-0.0043,-0.0023,-0.0018,-0.0077,-0.0077,-0.0077,0,0.0583,0.0613,0.0619,0.06,0.0584,0.0523,0.0499,0.0446,0.0334,0.0308,0.025,0.0125,0.0053,0.0022,0.001,-0.0024,-0.0031,-0.0061,-0.0044,-0.004,-0.0037,-0.0018,-0.0014,-0.0074,-0.0074,-0.0075,-0.0075,0,0.0581,0.0602,0.0596,0.0586,0.0563,0.0527,0.048,0.0427,0.0359,0.0313,0.0244,0.0163,0.0093,0.0064,0.0024,0.0013,0.0003,-0.0027,-0.0053,-0.0027,-0.0009,-0.0005,-0.0069,-0.007,-0.0071,-0.0072,0,0,0.0621,0.061,0.0609,0.0606,0.0551,0.0534,0.0488,0.0451,0.0434,0.0325,0.0303,0.021,0.0167,0.0131,0.0081,0.0064,0.0081,0.0019,0.0017,0.0049,0.0082,0.0036,0.0036,0.0046,0.0047,0.0047,0.0096,0,0.0614,0.0611,0.0601,0.0585,0.0574,0.0533,0.0512,0.0467,0.0418,0.0378,0.0314,0.0265,0.0195,0.0164,0.0137,0.0092,0.0089,0.0071,0.0043,0.0043,0.0007,0.0038,0.0049,0.0099,0.01,0.01,0.0101,0,0.0605,0.0611,0.061,0.061,0.0603,0.058,0.0563,0.0532,0.0487,0.0447,0.0395,0.0343,0.03,0.0237,0.0185,0.0171,0.0132,0.0102,0.0102,0.0035,0.0003,0.006,0.0107,0.0107,0.0106,0.0106,0.0105,0,0.063,0.0619,0.0634,0.0624,0.0608,0.0596,0.0576,0.0541,0.0537,0.0489,0.0481,0.042,0.0385,0.0325,0.0229,0.0211,0.0181,0.0155,0.0093,0.0091,0.0089,0.0084,0.0139,0.0139,0.0139,0.0139,0.0139,0,0.0619,0.0637,0.0643,0.0645,0.0652,0.0622,0.0626,0.0596,0.0579,0.0582,0.0514,0.047,0.04,0.0356,0.0274,0.0189,0.0217,0.011,0.0096,0.0119,0.0116,0.0093,0.0087,0.0141,0.0141,0.014,0.014,0,0.062,0.0637,0.0663,0.0665,0.0661,0.0656,0.0649,0.0667,0.0635,0.0638,0.0626,0.0534,0.0434,0.0385,0.0295,0.0251,0.0176,0.0142,0.0197,0.0184,0.009,0.0087,0.0104,0.0103,0.0102,0.0101,0.01,0,0.061,0.0623,0.0678,0.0697,0.0687,0.0682,0.0696,0.0679,0.0695,0.0637,0.0638,0.0549,0.0474,0.0323,0.0241,0.0155,0.0118,0.0146,0.0094,0.01,0.0085,0.0084,0.0082,0.0098,0.0098,0.0098,0.0097,0,0.0576,0.0622,0.0653,0.0709,0.0731,0.0756,0.0755,0.0737,0.0723,0.076,0.0616,0.0507,0.0401,0.0258,0.0218,0.0128,0.0166,0.0134,0.0136,0.0086,0.0093,0.0079,0.0079,0.0093,0.0094,0.0094,0.0095,0,0.0566,0.0583,0.0654,0.0683,0.0757,0.0757,0.0747,0.0723,0.0715,0.0662,0.0592,0.044,0.039,0.0239,0.016,0.0114,0.0086,0.0107,0.0109,0.0113,0.0079,0.0087,0.0084,0,0,0,0,0,0.0526,0.0548,0.0603,0.0642,0.0738,0.077,0.078,0.0769,0.075,0.0668,0.0628,0.0498,0.032,0.0199,0.0138,0.0131,0.0089,0.0063,0.0118,0.0072,0.0076,0.0028,0,0,0,0,0,0,0.0502,0.0566,0.0587,0.0624,0.0652,0.0729,0.0725,0.0705,0.0635,0.0605,0.0479,0.0522,0.0319,0.036,0.0143,0.0127,0.0162,0.001,0.0009,0.007,0.0074,0.0077,0.0029,0,0,0,0,0]}]]